Flag for Canada Weather past 2 weeks in Rothesay, New Brunswick, Canada

Now
25 °F

Light snow. Overcast.


Feels Like: 8 °F
Forecast: 15 / 26 °F
Wind: 29 mph from North

Location: Saint John

Current Time: Jan 31, 2015 at 3:39:25 PM

Latest Report: Jan 31, 2015 at 3:00 PM


Visibility: 3 mi

Pressure: 29.32 "Hg

Humidity: 86%

Dew point: 21 °F

Location of RothesayLocation

Historic Weather in Rothesay — Graph

°F

Rothesay temperature yesterday

Maximum temperature yesterday: 27 °F (at 2:00 PM)
Minimum temperature yesterday: 1 °F (at 12:00 AM)
Average temperature yesterday: 17 °F

Past Weeks' High & Low Weather Summary

 TemperatureHumidityPressure
High45 °F (Jan 19, 7:00 AM)100% (Jan 19, 2:00 AM)30.38 "Hg (Jan 19, 2:00 AM)
Low-9 °F (Jan 18, 12:00 AM)39% (Jan 17, 4:00 PM)28.76 "Hg (Jan 25, 12:47 AM)
Average19 °F75%29.85 "Hg
* Reported Jan 16 2:00 PM — Jan 31 2:00 PM, Rothesay, Weather by CustomWeather, © 2014

Note: Actual official high and low records may vary slightly from our data, if they occured in-between our weather recording intervals... More about our weather records

Advertising

Rothesay weather history for previous 24 hours

 ConditionsComfort  
Time TempWeatherWind HumidityBarometerVisibility
2:00 PM
Jan 31
25 °FLight snow. Mostly cloudy.30 mph86%29.32 "Hg3 mi
1:04 PM25 °FSnow. Ice fog.30 mph86%29.31 "Hg1 mi
12:00 PM23 °FSnow. Ice fog.20 mph93%29.40 "Hg1 mi
11:00 AM23 °FSnow. Ice fog.22 mph93%29.44 "Hg1 mi
10:00 AM23 °FLight snow. Ice fog.24 mph93%29.43 "Hg1 mi
9:00 AM23 °FLight snow. Ice fog.28 mph86%29.45 "Hg1 mi
8:00 AM21 °FSnow. Ice fog.26 mph93%29.49 "Hg1 mi
7:00 AM21 °FSnow. Ice fog.17 mph86%29.52 "Hg1 mi
6:00 AM21 °FSnow. Ice fog.18 mph93%29.54 "Hg1 mi
5:00 AM21 °FSnow. Ice fog.20 mph93%29.55 "Hg1 mi
4:00 AM21 °FSnow. Ice fog.18 mph93%29.57 "Hg1 mi
3:00 AM23 °FLight snow. Ice fog.15 mph86%29.62 "Hg15 mi
2:00 AM25 °FLight snow. Ice fog.10 mph93%29.66 "Hg1 mi
1:00 AM27 °FLight snow. Mostly cloudy.9 mph80%29.69 "Hg6 mi
12:00 AM27 °FLight snow. Low clouds.10 mph86%29.72 "Hg6 mi
11:00 PM
Jan 30
27 °FLight snow. Mostly cloudy.14 mph86%29.73 "Hg8 mi
10:00 PM27 °FLight snow. Mostly cloudy.7 mph86%29.76 "Hg15 mi
9:00 PM27 °FLight snow. Mostly cloudy.8 mph86%29.79 "Hg15 mi
8:00 PM27 °FOvercast.9 mph86%29.80 "Hg15 mi
7:00 PM25 °FOvercast.3 mph86%29.83 "Hg15 mi
6:00 PM25 °FOvercast.3 mph80%29.84 "Hg15 mi
5:00 PM25 °FMore clouds than sun.7 mph80%29.84 "Hg15 mi
4:00 PM25 °FOvercast.5 mph80%29.86 "Hg15 mi
3:00 PM27 °FMore clouds than sun.6 mph80%29.87 "Hg15 mi
Weather by CustomWeather, © 2014

See weather overviewHow to use our weather pages